When you browse on this site, cookies collect data to enhance your experience and personalize the content and advertising you see.
Visit our Privacy Policy to learn more. By continuing to use the site, you agree to this use of cookies and data.
  • In Österreich
  • Länderverzeichnis
  • Für 7 Tage
  • Wassertemperatur
  • Wetterkarte
  • News
  • Widgets
  • user-avatar
    Anmelden

    Stündliche Wetter Widin

    Heute, 22 Februar, Samstag

    Zeit Temperatur Niederschläge Wind Luftdruck Luftfeuchtigkeit
    00:00 +3°C° 0 mm 6 m/S 765 mmHg 73%
    01:00 +3°C° 0 mm 6 m/S 765 mmHg 74%
    02:00 +2°C° 0 mm 6 m/S 766 mmHg 75%
    03:00 +2°C° 0 mm 5 m/S 766 mmHg 76%
    04:00 +2°C° 0 mm 5 m/S 766 mmHg 77%
    05:00 +2°C° 0 mm 5 m/S 766 mmHg 78%
    06:00 +3°C° 0 mm 4 m/S 767 mmHg 79%
    07:00 +1°C° 0 mm 4 m/S 767 mmHg 80%
    08:00 +1°C° 0 mm 4 m/S 768 mmHg 82%
    09:00 +4°C° 0 mm 3 m/S 768 mmHg 75%
    10:00 +5°C° 0 mm 3 m/S 768 mmHg 67%
    11:00 +8°C° 0 mm 3 m/S 769 mmHg 60%
    12:00 +8°C° 0 mm 3 m/S 769 mmHg 57%
    13:00 +9°C° 0 mm 3 m/S 769 mmHg 54%
    14:00 +10°C° 0 mm 3 m/S 769 mmHg 49%
    15:00 +10°C° 0 mm 3 m/S 769 mmHg 51%
    16:00 +8°C° 0 mm 4 m/S 769 mmHg 53%
    17:00 +8°C° 0 mm 4 m/S 769 mmHg 55%
    18:00 +7°C° 0 mm 4 m/S 769 mmHg 59%
    19:00 +6°C° 0 mm 4 m/S 769 mmHg 63%
    20:00 +5°C° 0 mm 4 m/S 769 mmHg 68%
    21:00 +5°C° 0 mm 4 m/S 769 mmHg 68%
    22:00 +4°C° 0 mm 4 m/S 769 mmHg 69%
    23:00 +4°C° 0 mm 4 m/S 769 mmHg 70%

    Morgen, 23 Februar, Sonntag

    Zeit Temperatur Niederschläge Wind Luftdruck Luftfeuchtigkeit
    00:00 +4°C° 0 mm 3 m/S 769 mmHg 70%
    01:00 +3°C° 0 mm 3 m/S 769 mmHg 70%
    02:00 +3°C° 0 mm 3 m/S 769 mmHg 70%
    03:00 +3°C° 0 mm 3 m/S 768 mmHg 70%
    04:00 +3°C° 0 mm 3 m/S 768 mmHg 70%
    05:00 +3°C° 0 mm 3 m/S 767 mmHg 71%
    06:00 +3°C° 0 mm 3 m/S 767 mmHg 70%
    07:00 +3°C° 0 mm 3 m/S 767 mmHg 69%
    08:00 +3°C° 0 mm 3 m/S 767 mmHg 68%
    09:00 +5°C° 0 mm 3 m/S 766 mmHg 60%
    10:00 +7°C° 0 mm 4 m/S 766 mmHg 53%
    11:00 +8°C° 0 mm 4 m/S 765 mmHg 46%
    12:00 +10°C° 0 mm 5 m/S 765 mmHg 42%
    13:00 +12°C° 0 mm 5 m/S 764 mmHg 39%
    14:00 +14°C° 0 mm 6 m/S 764 mmHg 36%
    15:00 +14°C° 0 mm 5 m/S 763 mmHg 38%
    16:00 +13°C° 0 mm 5 m/S 762 mmHg 41%
    17:00 +13°C° 0 mm 4 m/S 762 mmHg 44%
    18:00 +12°C° 0 mm 4 m/S 762 mmHg 46%
    19:00 +11°C° 0 mm 4 m/S 762 mmHg 48%
    20:00 +10°C° 0 mm 3 m/S 762 mmHg 49%
    21:00 +10°C° 0 mm 3 m/S 761 mmHg 50%
    22:00 +9°C° 0 mm 3 m/S 760 mmHg 50%
    23:00 +9°C° 0 mm 3 m/S 760 mmHg 51%

    übermorgen, 24 Februar, Montag

    Zeit Temperatur Niederschläge Wind Luftdruck Luftfeuchtigkeit
    00:00 +9°C° 0 mm 3 m/S 759 mmHg 51%
    01:00 +9°C° 0 mm 3 m/S 759 mmHg 51%
    02:00 +8°C° 0 mm 3 m/S 759 mmHg 51%
    03:00 +8°C° 0 mm 3 m/S 758 mmHg 51%
    04:00 +7°C° 0 mm 4 m/S 758 mmHg 51%
    05:00 +7°C° 0 mm 4 m/S 757 mmHg 51%
    06:00 +8°C° 0 mm 5 m/S 758 mmHg 50%
    07:00 +9°C° 0 mm 6 m/S 759 mmHg 49%
    08:00 +9°C° 0 mm 6 m/S 759 mmHg 48%
    09:00 +9°C° 0 mm 7 m/S 760 mmHg 52%
    10:00 +10°C° 0 mm 8 m/S 760 mmHg 56%
    11:00 +10°C° 0 mm 9 m/S 761 mmHg 60%
    12:00 +11°C° 0 mm 10 m/S 761 mmHg 51%
    13:00 +12°C° 0 mm 11 m/S 761 mmHg 43%
    14:00 +13°C° 0 mm 11 m/S 761 mmHg 34%
    15:00 +12°C° 0 mm 10 m/S 761 mmHg 33%
    16:00 +11°C° 0 mm 10 m/S 761 mmHg 32%
    17:00 +11°C° 0 mm 9 m/S 761 mmHg 31%
    18:00 +10°C° 0 mm 7 m/S 762 mmHg 37%
    19:00 +8°C° 0 mm 6 m/S 763 mmHg 42%
    20:00 +7°C° 0 mm 5 m/S 763 mmHg 48%
    21:00 +6°C° 0 mm 4 m/S 764 mmHg 52%
    22:00 +7°C° 0 mm 3 m/S 764 mmHg 56%
    23:00 +6°C° 0 mm 2 m/S 764 mmHg 61%

    25 Februar, Dienstag

    Zeit Temperatur Niederschläge Wind Luftdruck Luftfeuchtigkeit
    00:00 +6°C° 0 mm 2 m/S 764 mmHg 61%
    01:00 +6°C° 0 mm 1 m/S 763 mmHg 61%
    02:00 +6°C° 0 mm 1 m/S 763 mmHg 61%
    03:00 +6°C° 0 mm 1 m/S 762 mmHg 62%
    04:00 +5°C° 0 mm 1 m/S 762 mmHg 62%
    05:00 +4°C° 0 mm 0 m/S 761 mmHg 63%
    06:00 +5°C° 0 mm 1 m/S 761 mmHg 64%
    07:00 +5°C° 0 mm 1 m/S 760 mmHg 64%
    08:00 +5°C° 0 mm 1 m/S 760 mmHg 65%
    09:00 +7°C° 0 mm 1 m/S 759 mmHg 59%
    10:00 +8°C° 0 mm 1 m/S 759 mmHg 53%
    11:00 +9°C° 0 mm 2 m/S 758 mmHg 48%
    12:00 +10°C° 0 mm 2 m/S 757 mmHg 44%
    13:00 +12°C° 0 mm 2 m/S 757 mmHg 41%
    14:00 +14°C° 0 mm 2 m/S 756 mmHg 38%
    15:00 +14°C° 0 mm 1 m/S 755 mmHg 39%
    16:00 +14°C° 0 mm 1 m/S 755 mmHg 41%
    17:00 +14°C° 0 mm 1 m/S 754 mmHg 42%
    18:00 +13°C° 0 mm 1 m/S 754 mmHg 45%
    19:00 +12°C° 0 mm 1 m/S 754 mmHg 47%
    20:00 +11°C° 0 mm 1 m/S 754 mmHg 50%
    21:00 +10°C° 0 mm 1 m/S 754 mmHg 52%
    22:00 +10°C° 0 mm 1 m/S 754 mmHg 53%
    23:00 +9°C° 0 mm 0 m/S 753 mmHg 55%

    26 Februar, Mittwoch

    Zeit Temperatur Niederschläge Wind Luftdruck Luftfeuchtigkeit
    00:00 +8°C° 0 mm 0 m/S 753 mmHg 57%
    01:00 +9°C° 0 mm 1 m/S 753 mmHg 59%
    02:00 +9°C° 0 mm 1 m/S 752 mmHg 61%
    03:00 +9°C° 0 mm 1 m/S 752 mmHg 64%
    04:00 +8°C° 0 mm 1 m/S 751 mmHg 67%
    05:00 +7°C° 0 mm 2 m/S 751 mmHg 71%
    06:00 +9°C° 0 mm 1 m/S 751 mmHg 72%
    07:00 +9°C° 0 mm 1 m/S 750 mmHg 73%
    08:00 +9°C° 0 mm 1 m/S 750 mmHg 74%
    09:00 +10°C° 0 mm 2 m/S 749 mmHg 66%
    10:00 +13°C° 0 mm 4 m/S 749 mmHg 57%
    11:00 +15°C° 0 mm 5 m/S 748 mmHg 49%
    12:00 +16°C° 0 mm 5 m/S 747 mmHg 46%
    13:00 +16°C° 0 mm 5 m/S 746 mmHg 44%
    14:00 +17°C° 0 mm 5 m/S 746 mmHg 41%
    15:00 +17°C° 0 mm 5 m/S 745 mmHg 43%
    16:00 +17°C° 0 mm 4 m/S 745 mmHg 44%
    17:00 +17°C° 0 mm 3 m/S 744 mmHg 45%
    18:00 +16°C° 0 mm 3 m/S 745 mmHg 49%
    19:00 +15°C° 0 mm 2 m/S 745 mmHg 53%
    20:00 +14°C° 0 mm 1 m/S 745 mmHg 57%
    21:00 +13°C° 0 mm 2 m/S 745 mmHg 57%
    22:00 +12°C° 0 mm 3 m/S 745 mmHg 58%
    23:00 +11°C° 0 mm 3 m/S 746 mmHg 58%

    27 Februar, Donnerstag

    Zeit Temperatur Niederschläge Wind Luftdruck Luftfeuchtigkeit
    00:00 +11°C° 0 mm 3 m/S 746 mmHg 61%
    01:00 +11°C° 0 mm 3 m/S 746 mmHg 63%
    02:00 +10°C° 0 mm 2 m/S 746 mmHg 66%
    03:00 +10°C° 0 mm 2 m/S 746 mmHg 67%
    04:00 +10°C° 0 mm 2 m/S 745 mmHg 67%
    05:00 +10°C° 0 mm 1 m/S 745 mmHg 68%
    06:00 +10°C° 0 mm 1 m/S 745 mmHg 69%
    07:00 +10°C° 0 mm 1 m/S 746 mmHg 70%
    08:00 +10°C° 0 mm 1 m/S 746 mmHg 71%
    09:00 +11°C° 0 mm 1 m/S 746 mmHg 67%
    10:00 +12°C° 0 mm 2 m/S 746 mmHg 63%
    11:00 +13°C° 0 mm 2 m/S 746 mmHg 58%
    12:00 +14°C° 0 mm 2 m/S 746 mmHg 56%
    13:00 +14°C° 0 mm 3 m/S 746 mmHg 54%
    14:00 +14°C° 0 mm 3 m/S 745 mmHg 52%
    15:00 +14°C° 0.3 mm 4 m/S 746 mmHg 54%
    16:00 +13°C° 0.3 mm 6 m/S 746 mmHg 56%
    17:00 +12°C° 0.3 mm 7 m/S 746 mmHg 58%
    18:00 +10°C° 0.2 mm 8 m/S 747 mmHg 59%
    19:00 +8°C° 0.2 mm 9 m/S 747 mmHg 60%
    20:00 +7°C° 0.2 mm 10 m/S 748 mmHg 61%
    21:00 +7°C° 0.5 mm 9 m/S 749 mmHg 61%
    22:00 +6°C° 0.5 mm 8 m/S 749 mmHg 61%
    23:00 +6°C° 0.5 mm 8 m/S 750 mmHg 61%
    Mehr zeigen